Location: *
(37.9500°N, 27.3666°E)
Time: 04:42:11
(UTC+00:00)

Milstar 3 Cent rocket - Pass Details

Date: 24 October 2021
Orbit: 706 x 5147 km, 28.3° (Epoch: 03 December)

Event Time Altitude Azimuth Distance (km) Brightness Sun altitude
Rises 18:13:02 0° 244° (WSW) 3,726 6.2 -34.5°
Reaches altitude 10° 18:15:12 10° 238° (WSW) 3,036 5.5 -34.9°
Enters shadow 18:21:15 46° 184° (S) 2,081 4.0 -36.0°
